EW1736 Weather Reports


time (UTC)temp
C
wind
direction
speed
KPH
gust
KPH
rain 1hr
cm
rain 24hr
cm
rain mn
cm
humidity
%
barometer
mb
20260505023634 17 94 9.7 14.5 0.00 0.00 0.00 78 1031.8
20260505022124 17 134 6.4 12.9 0.00 0.00 0.00 77 1031.8
20260505020632 17 90 6.4 12.9 0.00 0.00 0.00 76 1032.0
20260505015121 17 117 8.0 12.9 0.00 0.00 0.00 75 1032.0
20260505014315 17 117 6.4 12.9 0.00 0.00 0.00 77 1032.1
20260505012118 17 110 6.4 12.9 0.00 0.00 0.00 77 1032.3
20260505010623 17 109 6.4 12.9 0.00 0.00 0.00 77 1032.4
20260505005114 17 93 8.0 14.5 0.00 0.00 0.00 78 1032.7
20260505003609 17 119 8.0 14.5 0.00 0.00 0.00 77 1032.9
20260505002110 17 109 6.4 12.9 0.00 0.00 0.00 76 1033.1
20260505002025 18 165 4.8 9.7 0.00 0.00 0.00 70 1033.2
20260504235101 18 159 3.2 8.0 0.00 0.00 0.00 71 1033.4
20260504233602 18 100 1.6 8.0 0.00 0.00 0.00 71 1033.6
20260504232748 18 196 4.8 9.7 0.00 0.00 0.00 70 1033.9
20260504230554 18 180 6.4 11.3 0.00 0.00 0.00 70 1033.9
20260504225759 19 227 3.2 11.3 0.00 0.00 0.00 72 1034.2
20260504223549 18 191 3.2 9.7 0.00 0.00 0.00 75 1034.0
20260504222747 17 223 3.2 12.9 0.00 0.00 0.00 76 1034.0
20260504220545 17 203 6.4 12.9 0.00 0.00 0.00 76 1033.9
20260504215754 16 173 6.4 9.7 0.00 0.00 0.00 77 1033.8
20260504213541 16 206 4.8 6.4 0.00 0.00 0.00 78 1033.9
20260504212037 16 167 3.2 9.7 0.00 0.00 0.00 79 1033.9
20260504210537 16 189 4.8 9.7 0.00 0.00 0.00 80 1033.9
20260504205033 15 201 6.4 9.7 0.00 0.00 0.00 82 1033.8
20260504203528 15 190 3.2 8.0 0.00 0.00 0.00 85 1033.9
20260504202029 15 188 3.2 8.0 0.00 0.00 0.00 86 1033.8
20260504200525 15 215 3.2 4.8 0.00 0.00 0.00 87 1033.8
20260504195735 15 188 1.6 4.8 0.00 0.00 0.00 86 1033.6
20260504193522 14 191 3.2 6.4 0.00 0.00 0.00 86 1033.5
20260504192012 14 180 3.2 4.8 0.00 0.00 0.00 86 1033.4
20260504191219 14 201 0.0 6.4 0.00 0.00 0.00 85 1033.3
20260504185702 14 196 4.8 6.4 0.00 0.00 0.00 85 1033.2
20260504183504 14 205 3.2 8.0 0.00 0.00 0.00 85 1033.2
20260504182005 14 199 3.2 8.0 0.00 0.00 0.00 83 1033.3
20260504180500 14 217 3.2 8.0 0.00 0.00 0.00 83 1033.4
20260504174956 14 196 4.8 9.7 0.00 0.00 0.00 83 1033.3
20260504173451 14 190 4.8 12.9 0.00 0.00 0.00 83 1033.2
20260504171947 14 204 6.4 8.0 0.00 0.00 0.00 83 1033.3
20260504171149 14 197 6.4 9.7 0.00 0.00 0.00 83 1033.2
20260504160435 14 203 4.8 9.7 0.00 0.00 0.00 85 1033.4
20260504150427 14 194 4.8 11.3 0.00 0.00 0.00 85 1034.0
20260504140409 14 214 6.4 12.9 0.00 0.00 0.00 83 1034.5
20260504130402 14 184 4.8 9.7 0.00 0.00 0.00 83 1034.8
20260504110341 14 211 4.8 9.7 0.00 0.00 0.00 84 1034.8
20260504080305 14 188 3.2 8.0 0.00 0.00 0.00 87 1034.8
20260504070257 15 192 1.6 6.4 0.00 0.00 0.00 82 1034.3
20260504060234 16 109 4.8 9.7 0.00 0.00 0.00 78 1033.7
20260504050226 16 107 4.8 11.3 0.00 0.00 0.00 78 1033.7
20260504044722 16 109 6.4 11.3 0.00 0.00 0.00 77 1033.8
20260504043223 16 111 4.8 9.7 0.00 0.00 0.00 77 1033.6
20260504041718 17 102 3.2 6.4 0.00 0.00 0.00 74 1033.7
20260504040907 17 76 1.6 9.7 0.00 0.00 0.00 74 1033.7
20260504035415 17 111 3.2 6.4 0.00 0.00 0.00 75 1033.5
20260504033210 16 98 3.2 11.3 0.00 0.00 0.00 75 1033.6
20260504031710 17 101 3.2 9.7 0.00 0.00 0.00 75 1033.6
20260504030206 17 105 3.2 11.3 0.00 0.00 0.00 74 1033.7
20260504030109 17 73 3.2 8.0 0.00 0.00 0.00 75 1033.7